Location: Omaha
(41.2590°N, 95.9380°W)
Time: 04:21:28
(UTC-05:00)

ISS - Pass Details

Date: 08 October 2017
Orbit: 401 x 408 km, 51.6° (Epoch: 19 October)

Event Time Altitude Azimuth Distance (km) Brightness Sun altitude
Rises 20:22:44 0° 310° (NW) 2,327 1.0 -17.6°
Reaches altitude 10° 20:25:10 10° 327° (NNW) 1,467 -0.5 -18.0°
Enters shadow 20:27:43 21° 19° (NNE) 981 -2.0 -18.5°
